,,,PA_Meas_PMT16A,,PR_Meas_QMR101_102,,RH_Meas_QMH101,,SR_Meas_QMS101,,TA_Meas_QMH101,,GenWind,,GenWind,
date,time,status,PA,status,PR,status,RH,status,SR,status,TA,status,DirAvg,status,SpdAvg,
2012-06-09, 00:00:04,VALID,1008.75,VALID,0,VALID,79.9484,VALID,0,VALID,26.9476,VALID,122,VALID,0.311719,
2012-06-09, 00:01:04,VALID,1008.71,VALID,0,VALID,80.4212,VALID,0,VALID,26.9302,VALID,122,VALID,0.192188,
2012-06-09, 00:02:04,VALID,1008.67,VALID,0,VALID,80.6576,VALID,0,VALID,26.8716,VALID,122,VALID,0,
2012-06-09, 00:03:04,VALID,1008.65,VALID,0,VALID,79.3231,VALID,0,VALID,26.8521,VALID,122,VALID,0.319531,
2012-06-09, 00:04:04,VALID,1008.66,VALID,0,VALID,80.7949,VALID,0,VALID,26.8696,VALID,122,VALID,0,
2012-06-09, 00:05:04,VALID,1008.65,VALID,0,VALID,80.3907,VALID,0,VALID,26.8501,VALID,122,VALID,0,
2012-06-09, 00:06:04,VALID,1008.63,VALID,0,VALID,80.955,VALID,0,VALID,26.8501,VALID,122,VALID,0.00117188,
2012-06-09, 00:07:04,VALID,1008.63,VALID,0,VALID,80.9169,VALID,0.112112,VALID,26.8501,VALID,122,VALID,0.394531,
2012-06-09, 00:08:04,VALID,1008.63,VALID,0,VALID,80.7033,VALID,0,VALID,26.8716,VALID,122,VALID,0.287109,
2012-06-09, 00:09:04,VALID,1008.64,VALID,0,VALID,81.1075,VALID,0,VALID,26.8501,VALID,122,VALID,0.00585938,
2012-06-09, 00:10:04,VALID,1008.62,VALID,0,VALID,81.0008,VALID,0,VALID,26.8306,VALID,122,VALID,0,
2012-06-09, 00:11:04,VALID,1008.66,VALID,0,VALID,80.894,VALID,0,VALID,26.8326,VALID,122,VALID,0,
2012-06-09, 00:12:04,VALID,1008.66,VALID,0,VALID,81.3973,VALID,0,VALID,26.7916,VALID,122,VALID,0.416797,
2012-06-09, 00:13:04,VALID,1008.67,VALID,0,VALID,82.0302,VALID,0,VALID,26.7546,VALID,122,VALID,0.342578,
2012-06-09, 00:14:04,VALID,1008.68,VALID,0,VALID,83.0978,VALID,0,VALID,26.6961,VALID,119,VALID,0.610937,
2012-06-09, 00:15:04,VALID,1008.65,VALID,0,VALID,83.6088,VALID,0,VALID,26.6161,VALID,119,VALID,0.682031,
2012-06-09, 00:16:04,VALID,1008.7,VALID,0,VALID,84.8441,VALID,0,VALID,26.5771,VALID,119,VALID,0.476172,
2012-06-09, 00:17:04,VALID,1008.66,VALID,0,VALID,83.9519,VALID,0,VALID,26.5186,VALID,119,VALID,0.303906,
2012-06-09, 00:18:04,VALID,1008.7,VALID,0,VALID,84.1426,VALID,0,VALID,26.5401,VALID,119,VALID,0,
2012-06-09, 00:19:04,VALID,1008.72,VALID,0,VALID,83.7155,VALID,0,VALID,26.5206,VALID,119,VALID,0,
2012-06-09, 00:20:04,VALID,1008.71,VALID,0,VALID,83.3419,VALID,0,VALID,26.5011,VALID,119,VALID,0,
2012-06-09, 00:21:04,VALID,1008.76,VALID,0,VALID,82.8996,VALID,0,VALID,26.4796,VALID,119,VALID,0,
2012-06-09, 00:22:04,VALID,1008.78,VALID,0,VALID,83.1436,VALID,0,VALID,26.4796,VALID,119,VALID,0,
2012-06-09, 00:23:04,VALID,1008.83,VALID,0,VALID,83.4791,VALID,0,VALID,26.5206,VALID,119,VALID,0,
2012-06-09, 00:24:04,VALID,1008.85,VALID,0,VALID,83.2427,VALID,0,VALID,26.4991,VALID,119,VALID,0,
2012-06-09, 00:25:04,VALID,1008.84,VALID,0,VALID,83.6164,VALID,0,VALID,26.4796,VALID,119,VALID,0,
2012-06-09, 00:26:04,VALID,1008.85,VALID,0,VALID,83.4562,VALID,0,VALID,26.4816,VALID,119,VALID,0,
2012-06-09, 00:27:04,VALID,1008.85,VALID,0,VALID,84.1273,VALID,0,VALID,26.4601,VALID,119,VALID,0.170312,
2012-06-09, 00:28:04,VALID,1008.85,VALID,0,VALID,85.1644,VALID,0,VALID,26.4426,VALID,119,VALID,0.283594,
2012-06-09, 00:29:04,VALID,1008.84,VALID,0,VALID,87.0785,VALID,0,VALID,26.4231,VALID,119,VALID,0.00351562,
2012-06-09, 00:30:04,VALID,1008.89,VALID,0,VALID,87.0861,VALID,0,VALID,26.3841,VALID,119,VALID,0,
2012-06-09, 00:31:04,VALID,1008.89,VALID,0,VALID,86.5294,VALID,0,VALID,26.3841,VALID,119,VALID,0,
2012-06-09, 00:32:04,VALID,1008.92,VALID,0,VALID,87.048,VALID,0,VALID,26.4036,VALID,119,VALID,0,
2012-06-09, 00:33:04,VALID,1008.89,VALID,0,VALID,87.3378,VALID,0,VALID,26.3821,VALID,119,VALID,0,
2012-06-09, 00:34:04,VALID,1008.92,VALID,0,VALID,87.0632,VALID,0,VALID,26.4231,VALID,119,VALID,0,
2012-06-09, 00:35:04,VALID,1008.91,VALID,0,VALID,86.2244,VALID,0,VALID,26.4231,VALID,119,VALID,0,
2012-06-09, 00:36:04,VALID,1008.9,VALID,0,VALID,85.7897,VALID,0,VALID,26.4406,VALID,119,VALID,0.169141,
2012-06-09, 00:37:04,VALID,1008.9,VALID,0,VALID,88.3444,VALID,0,VALID,26.5011,VALID,119,VALID,0,
2012-06-09, 00:38:04,VALID,1008.9,VALID,0,VALID,87.6809,VALID,0,VALID,26.4796,VALID,119,VALID,0.111719,
2012-06-09, 00:39:04,VALID,1008.92,VALID,0,VALID,87.9021,VALID,0,VALID,26.4601,VALID,119,VALID,0,
2012-06-09, 00:40:04,VALID,1008.94,VALID,0,VALID,89.5187,VALID,0,VALID,26.4816,VALID,119,VALID,0,
2012-06-09, 00:41:04,VALID,1008.96,VALID,0,VALID,90.6855,VALID,0,VALID,26.4621,VALID,119,VALID,0,
2012-06-09, 00:42:04,VALID,1008.98,VALID,0,VALID,90.4948,VALID,0,VALID,26.4036,VALID,119,VALID,0.431641,
2012-06-09, 00:43:04,VALID,1008.99,VALID,0,VALID,90.1135,VALID,0,VALID,26.3256,VALID,77,VALID,0.649219,
2012-06-09, 00:44:04,VALID,1009.05,VALID,0,VALID,85.1949,VALID,0,VALID,26.2671,VALID,45,VALID,1.42813,
2012-06-09, 00:45:04,VALID,1009.06,VALID,0,VALID,84.4628,VALID,0,VALID,26.3061,VALID,44,VALID,0.985547,
2012-06-09, 00:46:04,VALID,1009.08,VALID,0,VALID,86.2091,VALID,0,VALID,26.3451,VALID,44,VALID,0.594531,
2012-06-09, 00:47:04,VALID,1009.11,VALID,0,VALID,86.0871,VALID,0,VALID,26.3646,VALID,42,VALID,0.582031,
2012-06-09, 00:48:04,VALID,1009.12,VALID,0,VALID,85.6982,VALID,0,VALID,26.3451,VALID,42,VALID,0.825,
2012-06-09, 00:49:04,VALID,1009.15,VALID,0,VALID,88.7638,VALID,0,VALID,26.3646,VALID,42,VALID,0.514844,
2012-06-09, 00:50:04,VALID,1009.18,VALID,0,VALID,91.1354,VALID,0,VALID,26.3646,VALID,42,VALID,0.0117188,
2012-06-09, 00:51:04,VALID,1009.17,VALID,0,VALID,90.9752,VALID,0,VALID,26.2846,VALID,42,VALID,0,
2012-06-09, 00:52:04,VALID,1009.18,VALID,0,VALID,90.0907,VALID,0,VALID,26.2866,VALID,42,VALID,0,
2012-06-09, 00:53:04,VALID,1009.18,VALID,0,VALID,90.9981,VALID,0,VALID,26.2651,VALID,42,VALID,0.279297,
2012-06-09, 00:54:04,VALID,1009.19,VALID,0,VALID,89.6484,VALID,0,VALID,26.2261,VALID,42,VALID,0.196484,
2012-06-09, 00:55:04,VALID,1009.17,VALID,0,VALID,89.7704,VALID,0,VALID,26.2476,VALID,42,VALID,0.189844,
2012-06-09, 00:56:04,VALID,1009.19,VALID,0,VALID,89.7399,VALID,0,VALID,26.2476,VALID,42,VALID,0.464063,
2012-06-09, 00:57:04,VALID,1009.15,VALID,0,VALID,88.3215,VALID,0,VALID,26.2476,VALID,42,VALID,0.645312,
2012-06-09, 00:58:04,VALID,1009.18,VALID,0,VALID,88.3062,VALID,0,VALID,26.2671,VALID,42,VALID,0.592969,
2012-06-09, 00:59:04,VALID,1009.18,VALID,0,VALID,89.6102,VALID,0,VALID,26.2671,VALID,42,VALID,0.580859,
2012-06-09, 01:00:04,VALID,1009.16,VALID,0,VALID,87.9936,VALID,0,VALID,26.2671,VALID,42,VALID,0.863281,
2012-06-09, 01:01:04,VALID,1009.19,VALID,0,VALID,86.0871,VALID,0,VALID,26.2476,VALID,35,VALID,0.945313,
2012-06-09, 01:02:04,VALID,1009.18,VALID,0,VALID,86.2244,VALID,0,VALID,26.2671,VALID,33,VALID,0.808594,
2012-06-09, 01:03:04,VALID,1009.19,VALID,0,VALID,87.414,VALID,0,VALID,26.2671,VALID,32,VALID,0.574609,
2012-06-09, 01:04:04,VALID,1009.19,VALID,0,VALID,87.3988,VALID,0,VALID,26.2476,VALID,32,VALID,0.463672,
2012-06-09, 01:05:04,VALID,1009.2,VALID,0,VALID,90.3881,VALID,0,VALID,26.2476,VALID,32,VALID,0.258984,
2012-06-09, 01:06:04,VALID,1009.19,VALID,0,VALID,90.4719,VALID,0,VALID,26.2281,VALID,32,VALID,0.183594,
2012-06-09, 01:07:04,VALID,1009.22,VALID,0,VALID,88.6189,VALID,0,VALID,26.1891,VALID,32,VALID,0.021875,
2012-06-09, 01:08:04,VALID,1009.23,VALID,0,VALID,89.2137,VALID,0,VALID,26.1696,VALID,32,VALID,0,
2012-06-09, 01:09:04,VALID,1009.25,VALID,0,VALID,90.2508,VALID,0.112112,VALID,26.1871,VALID,32,VALID,0,
2012-06-09, 01:10:04,VALID,1009.29,VALID,0,VALID,90.8685,VALID,0.112112,VALID,26.1481,VALID,32,VALID,0,
2012-06-09, 01:11:04,VALID,1009.31,VALID,0,VALID,90.3652,VALID,0.112112,VALID,26.1481,VALID,32,VALID,0.0382813,
2012-06-09, 01:12:04,VALID,1009.32,VALID,0,VALID,90.4491,VALID,0.112112,VALID,26.1481,VALID,32,VALID,0,
2012-06-09, 01:13:04,VALID,1009.33,VALID,0,VALID,90.9829,VALID,0.112112,VALID,26.1676,VALID,32,VALID,0,
2012-06-09, 01:14:04,VALID,1009.32,VALID,0,VALID,91.1964,VALID,0.112112,VALID,26.1676,VALID,32,VALID,0,
2012-06-09, 01:15:04,VALID,1009.28,VALID,0,VALID,91.6082,VALID,0.112112,VALID,26.1676,VALID,32,VALID,0,
2012-06-09, 01:16:04,VALID,1009.27,VALID,0,VALID,91.9818,VALID,0.112112,VALID,26.1461,VALID,32,VALID,0,
2012-06-09, 01:17:04,VALID,1009.26,VALID,0,VALID,92.4241,VALID,0.112112,VALID,26.1266,VALID,32,VALID,0,
2012-06-09, 01:18:04,VALID,1009.24,VALID,0,VALID,92.1725,VALID,0.112112,VALID,26.1286,VALID,32,VALID,0,
2012-06-09, 01:19:04,VALID,1009.28,VALID,0,VALID,92.569,VALID,0.112112,VALID,26.1286,VALID,32,VALID,0.0746094,
2012-06-09, 01:20:04,VALID,1009.3,VALID,0,VALID,94.0103,VALID,0.112112,VALID,26.0876,VALID,32,VALID,0.0109375,
2012-06-09, 01:21:04,VALID,1009.3,VALID,0,VALID,94.0484,VALID,0.112112,VALID,26.0896,VALID,32,VALID,0,
2012-06-09, 01:22:04,VALID,1009.31,VALID,0,VALID,94.7424,VALID,0.112112,VALID,26.0486,VALID,32,VALID,0,
2012-06-09, 01:23:04,VALID,1009.32,VALID,0,VALID,95.3905,VALID,0.112112,VALID,26.0311,VALID,32,VALID,0,
2012-06-09, 01:24:04,VALID,1009.31,VALID,0,VALID,95.9472,VALID,0,VALID,26.0331,VALID,32,VALID,0.150391,
2012-06-09, 01:25:04,VALID,1009.3,VALID,0,VALID,95.9167,VALID,0,VALID,26.0136,VALID,32,VALID,0.623047,
2012-06-09, 01:26:04,VALID,1009.28,VALID,0,VALID,91.6844,VALID,0,VALID,25.9941,VALID,85,VALID,0.757422,
2012-06-09, 01:27:04,VALID,1009.22,VALID,0,VALID,91.2269,VALID,0,VALID,26.0526,VALID,85,VALID,0.426562,
2012-06-09, 01:28:04,VALID,1009.18,VALID,0,VALID,91.3184,VALID,0,VALID,26.0721,VALID,85,VALID,0.389844,
2012-06-09, 01:29:04,VALID,1009.11,VALID,0,VALID,91.2269,VALID,0,VALID,26.0916,VALID,83,VALID,0.360938,
2012-06-09, 01:30:04,VALID,1009.04,VALID,0,VALID,93.1715,VALID,0,VALID,26.1306,VALID,83,VALID,0.248437,
2012-06-09, 01:31:04,VALID,1009.02,VALID,0,VALID,93.0952,VALID,0,VALID,26.1111,VALID,83,VALID,0.00195313,
2012-06-09, 01:32:04,VALID,1009,VALID,0,VALID,91.3642,VALID,0,VALID,26.0916,VALID,83,VALID,0,
2012-06-09, 01:33:04,VALID,1009.03,VALID,0,VALID,91.8293,VALID,0,VALID,26.0896,VALID,83,VALID,0,
2012-06-09, 01:34:04,VALID,1009.04,VALID,0,VALID,92.9732,VALID,0,VALID,26.1306,VALID,83,VALID,0.413281,
2012-06-09, 01:35:04,VALID,1009.03,VALID,0,VALID,93.4689,VALID,0,VALID,26.1501,VALID,83,VALID,0.519531,
2012-06-09, 01:36:04,VALID,1009.01,VALID,0,VALID,94.2238,VALID,0,VALID,26.1501,VALID,109,VALID,0.870313,
2012-06-09, 01:37:04,VALID,1009,VALID,0,VALID,93.5222,VALID,0,VALID,26.1111,VALID,117,VALID,1.22812,
2012-06-09, 01:38:04,VALID,1009,VALID,0,VALID,93.7129,VALID,0,VALID,26.1111,VALID,93,VALID,1.34961,
2012-06-09, 01:39:04,VALID,1008.95,VALID,0,VALID,92.6529,VALID,0,VALID,26.0916,VALID,92,VALID,1.6668,
2012-06-09, 01:40:04,VALID,1008.89,VALID,0,VALID,91.9895,VALID,0,VALID,26.0721,VALID,100,VALID,1.35,
2012-06-09, 01:41:04,VALID,1008.88,VALID,0,VALID,92.8969,VALID,0,VALID,26.0136,VALID,95,VALID,2.00039,
2012-06-09, 01:42:04,VALID,1008.86,VALID,0,VALID,95.9091,VALID,0,VALID,25.9356,VALID,120,VALID,1.55586,
2012-06-09, 01:43:04,VALID,1008.8,VALID,0.5,VALID,98.4408,VALID,0,VALID,25.7991,VALID,113,VALID,1.53984,
2012-06-09, 01:44:04,VALID,1008.74,VALID,0,VALID,99.8059,VALID,0,VALID,25.7211,VALID,66,VALID,0.852734,
2012-06-09, 01:45:04,VALID,1008.7,VALID,0,VALID,100.729,VALID,0,VALID,25.6236,VALID,125,VALID,1.20508,
2012-06-09, 01:46:04,VALID,1008.68,VALID,0,VALID,101.438,VALID,0,VALID,25.5827,VALID,139,VALID,1.10508,
2012-06-09, 01:47:04,VALID,1008.67,VALID,0.5,VALID,102.01,VALID,0,VALID,25.5651,VALID,164,VALID,1.15625,
2012-06-09, 01:48:04,VALID,1008.64,VALID,0,VALID,102.528,VALID,0,VALID,25.5456,VALID,196,VALID,0.960938,
2012-06-09, 01:49:04,VALID,1008.57,VALID,0,VALID,102.864,VALID,0,VALID,25.4871,VALID,177,VALID,0.947656,
2012-06-09, 01:50:04,VALID,1008.51,VALID,0,VALID,103.146,VALID,0,VALID,25.4677,VALID,180,VALID,0.330078,
2012-06-09, 01:51:04,VALID,1008.5,VALID,0,VALID,103.42,VALID,0,VALID,25.4677,VALID,180,VALID,0.1125,
2012-06-09, 01:52:04,VALID,1008.6,VALID,0,VALID,103.649,VALID,0,VALID,25.4287,VALID,164,VALID,0.755078,
2012-06-09, 01:53:04,VALID,1008.72,VALID,0,VALID,103.794,VALID,0,VALID,25.4287,VALID,154,VALID,1.79727,
2012-06-09, 01:54:04,VALID,1008.76,VALID,0,VALID,103.939,VALID,0,VALID,25.4482,VALID,151,VALID,1.11367,
2012-06-09, 01:55:04,VALID,1008.73,VALID,0,VALID,104,VALID,0,VALID,25.4287,VALID,184,VALID,0.532031,
2012-06-09, 01:56:04,VALID,1008.77,VALID,0,VALID,104,VALID,0,VALID,25.4092,VALID,196,VALID,0.05,
2012-06-09, 01:57:04,VALID,1008.8,VALID,0,VALID,104,VALID,0.112112,VALID,25.4072,VALID,196,VALID,0.495703,
2012-06-09, 01:58:04,VALID,1008.84,VALID,0,VALID,104,VALID,0.112112,VALID,25.4072,VALID,196,VALID,0.554688,
2012-06-09, 01:59:04,VALID,1008.84,VALID,0,VALID,104,VALID,0.112112,VALID,25.3877,VALID,95,VALID,1.17813,
2012-06-09, 02:00:04,VALID,1008.89,VALID,0,VALID,104,VALID,0.112112,VALID,25.3683,VALID,13,VALID,1.22109,
2012-06-09, 02:01:04,VALID,1008.95,VALID,0,VALID,104,VALID,0,VALID,25.3488,VALID,45,VALID,0.943359,
2012-06-09, 02:02:04,VALID,1008.99,VALID,0,VALID,104,VALID,0.112112,VALID,25.3098,VALID,48,VALID,0.560156,
2012-06-09, 02:03:04,VALID,1009.01,VALID,0,VALID,104,VALID,0,VALID,25.3098,VALID,48,VALID,0.642578,
2012-06-09, 02:04:04,VALID,1009,VALID,0,VALID,104,VALID,0.112112,VALID,25.2903,VALID,48,VALID,0.377344,
2012-06-09, 02:05:04,VALID,1009,VALID,0,VALID,104,VALID,0,VALID,25.2708,VALID,8,VALID,0.519922,
2012-06-09, 02:06:04,VALID,1008.99,VALID,0,VALID,104,VALID,0.112112,VALID,25.2708,VALID,8,VALID,0.465625,
2012-06-09, 02:07:04,VALID,1008.98,VALID,0,VALID,104,VALID,0.112112,VALID,25.2708,VALID,8,VALID,0.647656,
2012-06-09, 02:08:04,VALID,1008.96,VALID,0,VALID,104,VALID,0,VALID,25.2513,VALID,8,VALID,0.550391,
2012-06-09, 02:09:04,VALID,1008.98,VALID,0,VALID,104,VALID,0,VALID,25.2532,VALID,351,VALID,0.295703,
2012-06-09, 02:10:04,VALID,1008.98,VALID,0,VALID,104,VALID,0,VALID,25.2746,VALID,351,VALID,0.108984,
2012-06-09, 02:11:04,VALID,1009,VALID,0,VALID,104,VALID,0,VALID,25.2337,VALID,351,VALID,0.500781,
2012-06-09, 02:12:04,VALID,1009.03,VALID,0,VALID,104,VALID,0,VALID,25.2532,VALID,353,VALID,0.844141,
2012-06-09, 02:13:04,VALID,1009.09,VALID,0,VALID,104,VALID,0,VALID,25.2337,VALID,15,VALID,0.963281,
2012-06-09, 02:14:04,VALID,1009.12,VALID,0,VALID,104,VALID,0,VALID,25.2551,VALID,30,VALID,0.616016,
2012-06-09, 02:15:04,VALID,1009.18,VALID,0,VALID,104,VALID,0,VALID,25.2532,VALID,69,VALID,0.696875,
2012-06-09, 02:16:04,VALID,1009.2,VALID,0,VALID,104,VALID,0,VALID,25.2727,VALID,69,VALID,0.384766,
2012-06-09, 02:17:04,VALID,1009.21,VALID,0,VALID,104,VALID,0,VALID,25.2941,VALID,69,VALID,0.515625,
2012-06-09, 02:18:04,VALID,1009.26,VALID,0,VALID,104,VALID,0,VALID,25.2922,VALID,69,VALID,0.313672,
2012-06-09, 02:19:04,VALID,1009.31,VALID,0,VALID,104,VALID,0,VALID,25.3312,VALID,69,VALID,0.5875,
2012-06-09, 02:20:04,VALID,1009.3,VALID,0,VALID,104,VALID,0,VALID,25.3312,VALID,69,VALID,0.564062,
2012-06-09, 02:21:04,VALID,1009.36,VALID,0,VALID,104,VALID,0,VALID,25.3507,VALID,69,VALID,0.794531,
2012-06-09, 02:22:04,VALID,1009.4,VALID,0,VALID,104,VALID,0,VALID,25.3897,VALID,77,VALID,1.08086,
2012-06-09, 02:23:04,VALID,1009.48,VALID,0,VALID,104,VALID,0,VALID,25.4306,VALID,73,VALID,1.25977,
2012-06-09, 02:24:04,VALID,1009.56,VALID,0,VALID,104,VALID,0,VALID,25.3897,VALID,78,VALID,1.39492,
2012-06-09, 02:25:04,VALID,1009.64,VALID,0,VALID,104,VALID,0,VALID,25.3897,VALID,75,VALID,1.64922,
2012-06-09, 02:26:04,VALID,1009.64,VALID,0,VALID,104,VALID,0,VALID,25.3897,VALID,77,VALID,2.09648,
2012-06-09, 02:27:04,VALID,1009.64,VALID,0,VALID,104,VALID,0,VALID,25.3897,VALID,80,VALID,2.03477,
2012-06-09, 02:28:04,VALID,1009.66,VALID,0.5,VALID,104,VALID,0,VALID,25.3702,VALID,79,VALID,2.81641,
2012-06-09, 02:29:04,VALID,1009.64,VALID,0,VALID,104,VALID,0,VALID,25.3702,VALID,86,VALID,2.21328,
2012-06-09, 02:30:04,VALID,1009.68,VALID,0,VALID,104,VALID,0,VALID,25.3916,VALID,81,VALID,1.85977,
2012-06-09, 02:31:04,VALID,1009.68,VALID,0,VALID,104,VALID,0,VALID,25.3702,VALID,73,VALID,2.20508,
2012-06-09, 02:32:04,VALID,1009.65,VALID,0,VALID,104,VALID,0,VALID,25.3897,VALID,83,VALID,2.57422,
2012-06-09, 02:33:04,VALID,1009.66,VALID,0,VALID,104,VALID,0,VALID,25.3683,VALID,74,VALID,1.84883,
2012-06-09, 02:34:04,VALID,1009.68,VALID,0,VALID,104,VALID,0,VALID,25.3897,VALID,71,VALID,2.06836,
2012-06-09, 02:35:04,VALID,1009.64,VALID,0,VALID,104,VALID,0,VALID,25.3897,VALID,58,VALID,2.25586,
2012-06-09, 02:36:04,VALID,1009.67,VALID,0,VALID,104,VALID,0,VALID,25.3897,VALID,86,VALID,2.275,
2012-06-09, 02:37:04,VALID,1009.64,VALID,0,VALID,104,VALID,0,VALID,25.3897,VALID,99,VALID,1.10703,
2012-06-09, 02:38:04,VALID,1009.62,VALID,0,VALID,104,VALID,0,VALID,25.3897,VALID,101,VALID,1.52148,
2012-06-09, 02:39:04,VALID,1009.59,VALID,0.5,VALID,104,VALID,0,VALID,25.3702,VALID,86,VALID,1.88594,
2012-06-09, 02:40:04,VALID,1009.57,VALID,0,VALID,104,VALID,0,VALID,25.3312,VALID,76,VALID,2.76602,
2012-06-09, 02:41:04,VALID,1009.52,VALID,0,VALID,104,VALID,0,VALID,25.3117,VALID,89,VALID,3.45039,
2012-06-09, 02:42:04,VALID,1009.55,VALID,0,VALID,104,VALID,0,VALID,25.3312,VALID,68,VALID,2.11953,
2012-06-09, 02:43:04,VALID,1009.52,VALID,0,VALID,104,VALID,0,VALID,25.2922,VALID,73,VALID,3.94922,
2012-06-09, 02:44:04,VALID,1009.53,VALID,0,VALID,104,VALID,0,VALID,25.2727,VALID,76,VALID,2.86484,
2012-06-09, 02:45:04,VALID,1009.57,VALID,0,VALID,104,VALID,0,VALID,25.2727,VALID,86,VALID,2.2582,
2012-06-09, 02:46:04,VALID,1009.58,VALID,0,VALID,104,VALID,0,VALID,25.2337,VALID,67,VALID,2.12578,
2012-06-09, 02:47:04,VALID,1009.59,VALID,0,VALID,104,VALID,0,VALID,25.2142,VALID,83,VALID,2.33477,
2012-06-09, 02:48:04,VALID,1009.59,VALID,0,VALID,104,VALID,0,VALID,25.1947,VALID,79,VALID,2.23047,
2012-06-09, 02:49:04,VALID,1009.61,VALID,0,VALID,104,VALID,0,VALID,25.1947,VALID,76,VALID,2.33203,
2012-06-09, 02:50:04,VALID,1009.62,VALID,0,VALID,104,VALID,0,VALID,25.1557,VALID,90,VALID,2.07188,
2012-06-09, 02:51:04,VALID,1009.65,VALID,0,VALID,104,VALID,0,VALID,25.1362,VALID,84,VALID,2.19883,
2012-06-09, 02:52:04,VALID,1009.65,VALID,0.5,VALID,104,VALID,0,VALID,25.0778,VALID,96,VALID,2.0793,
2012-06-09, 02:53:04,VALID,1009.63,VALID,0,VALID,104,VALID,0,VALID,25.0193,VALID,75,VALID,2.09063,
2012-06-09, 02:54:04,VALID,1009.61,VALID,0.5,VALID,104,VALID,0,VALID,24.9023,VALID,71,VALID,2.525,
2012-06-09, 02:55:04,VALID,1009.53,VALID,0,VALID,104,VALID,0,VALID,24.7854,VALID,70,VALID,4.06484,
2012-06-09, 02:56:04,VALID,1009.47,VALID,0,VALID,103.931,VALID,0,VALID,24.7074,VALID,80,VALID,3.52383,
2012-06-09, 02:57:04,VALID,1009.44,VALID,0,VALID,103.619,VALID,0,VALID,24.6294,VALID,64,VALID,2.74023,
2012-06-09, 02:58:04,VALID,1009.47,VALID,0,VALID,103.39,VALID,0,VALID,24.5496,VALID,82,VALID,2.99648,
2012-06-09, 02:59:04,VALID,1009.46,VALID,0.5,VALID,103.497,VALID,0,VALID,24.5106,VALID,76,VALID,2.85234,
2012-06-09, 03:00:04,VALID,1009.47,VALID,0,VALID,103.672,VALID,0,VALID,24.4735,VALID,77,VALID,2.99453,
2012-06-09, 03:01:04,VALID,1009.51,VALID,0,VALID,103.931,VALID,0,VALID,24.4345,VALID,83,VALID,4.4543,
2012-06-09, 03:02:04,VALID,1009.56,VALID,0,VALID,104,VALID,0,VALID,24.415,VALID,80,VALID,3.64219,
2012-06-09, 03:03:04,VALID,1009.63,VALID,0,VALID,104,VALID,0,VALID,24.3956,VALID,74,VALID,2.32109,
2012-06-09, 03:04:04,VALID,1009.68,VALID,0,VALID,103.893,VALID,0,VALID,24.3371,VALID,73,VALID,4.51328,
2012-06-09, 03:05:04,VALID,1009.78,VALID,0,VALID,103.886,VALID,0,VALID,24.2963,VALID,74,VALID,4.59414,
2012-06-09, 03:06:04,VALID,1009.82,VALID,0,VALID,103.787,VALID,0,VALID,24.3158,VALID,81,VALID,3.23164,
2012-06-09, 03:07:04,VALID,1009.83,VALID,0,VALID,103.901,VALID,0,VALID,24.2981,VALID,74,VALID,3.8043,
2012-06-09, 03:08:04,VALID,1009.85,VALID,0,VALID,103.649,VALID,0,VALID,24.2591,VALID,74,VALID,4.05273,
2012-06-09, 03:09:04,VALID,1009.89,VALID,0.5,VALID,103.687,VALID,0,VALID,24.2396,VALID,71,VALID,4.42383,
2012-06-09, 03:10:04,VALID,1009.92,VALID,0,VALID,103.588,VALID,0,VALID,24.1988,VALID,76,VALID,3.54688,
2012-06-09, 03:11:04,VALID,1009.96,VALID,0,VALID,103.863,VALID,0,VALID,24.1812,VALID,63,VALID,2.64844,
2012-06-09, 03:12:05,VALID,1009.75,VALID,0,VALID,104,VALID,0,VALID,24.1032,VALID,63,VALID,3.875,
2012-06-09, 03:13:05,VALID,1009.86,VALID,0,VALID,104,VALID,0,VALID,24.1032,VALID,35,VALID,3.51094,
2012-06-09, 03:14:05,VALID,1009.81,VALID,0,VALID,104,VALID,0,VALID,24.0448,VALID,24,VALID,3.47266,
2012-06-09, 03:15:05,VALID,1009.73,VALID,0.5,VALID,104,VALID,0,VALID,24.0058,VALID,58,VALID,2.48242,
2012-06-09, 03:16:05,VALID,1009.61,VALID,0.5,VALID,104,VALID,0,VALID,23.9278,VALID,64,VALID,4.01719,
2012-06-09, 03:17:05,VALID,1009.58,VALID,0.5,VALID,104,VALID,0,VALID,23.8499,VALID,48,VALID,2.93945,
2012-06-09, 03:18:05,VALID,1009.56,VALID,0.5,VALID,104,VALID,0,VALID,23.8109,VALID,54,VALID,3.14063,
2012-06-09, 03:19:05,VALID,1009.57,VALID,0,VALID,104,VALID,0,VALID,23.7525,VALID,71,VALID,3.16758,
2012-06-09, 03:20:05,VALID,1009.53,VALID,0.5,VALID,104,VALID,0,VALID,23.733,VALID,69,VALID,3.94102,
2012-06-09, 03:21:05,VALID,1009.57,VALID,1,VALID,104,VALID,0,VALID,23.694,VALID,70,VALID,5.32305,
2012-06-09, 03:22:05,VALID,1009.45,VALID,0.5,VALID,104,VALID,0,VALID,23.655,VALID,82,VALID,6.22891,
2012-06-09, 03:23:05,VALID,1009.62,VALID,1,VALID,104,VALID,0,VALID,23.6356,VALID,82,VALID,3.21758,
2012-06-09, 03:24:05,VALID,1009.6,VALID,1.5,VALID,104,VALID,0,VALID,23.5966,VALID,64,VALID,4.38398,
2012-06-09, 03:25:05,VALID,1009.65,VALID,1,VALID,104,VALID,0,VALID,23.5771,VALID,75,VALID,4.24375,
2012-06-09, 03:26:05,VALID,1009.64,VALID,0.5,VALID,104,VALID,0,VALID,23.5789,VALID,74,VALID,3.49805,
2012-06-09, 03:27:05,VALID,1009.75,VALID,0.5,VALID,104,VALID,0,VALID,23.5363,VALID,74,VALID,5.40234,
2012-06-09, 03:28:05,VALID,1009.76,VALID,0.5,VALID,104,VALID,0,VALID,23.5186,VALID,64,VALID,2.98047,
2012-06-09, 03:29:05,VALID,1009.79,VALID,0.5,VALID,104,VALID,0,VALID,23.5381,VALID,71,VALID,4.13008,
2012-06-09, 03:30:05,VALID,1009.88,VALID,0,VALID,104,VALID,0,VALID,23.4992,VALID,75,VALID,6.06992,
2012-06-09, 03:31:05,VALID,1009.87,VALID,0.5,VALID,104,VALID,0,VALID,23.5186,VALID,95,VALID,4.8793,
2012-06-09, 03:32:05,VALID,1009.97,VALID,0,VALID,104,VALID,0,VALID,23.5381,VALID,86,VALID,3.95508,
2012-06-09, 03:33:05,VALID,1009.97,VALID,0,VALID,104,VALID,0,VALID,23.5381,VALID,80,VALID,3.43711,
2012-06-09, 03:34:05,VALID,1010.05,VALID,0.5,VALID,104,VALID,0,VALID,23.5576,VALID,79,VALID,2.57109,
2012-06-09, 03:35:05,VALID,1010.04,VALID,0,VALID,104,VALID,0,VALID,23.5186,VALID,85,VALID,3.90156,
2012-06-09, 03:36:05,VALID,1010.08,VALID,0.5,VALID,104,VALID,0,VALID,23.5186,VALID,62,VALID,4.32461,
2012-06-09, 03:37:05,VALID,1010.08,VALID,0.5,VALID,104,VALID,0,VALID,23.4992,VALID,62,VALID,1.63633,
2012-06-09, 03:38:05,VALID,1010.15,VALID,0,VALID,104,VALID,0,VALID,23.5186,VALID,73,VALID,2.13281,
2012-06-09, 03:39:05,VALID,1010.16,VALID,0.5,VALID,104,VALID,0,VALID,23.4797,VALID,78,VALID,4.09961,
2012-06-09, 03:40:05,VALID,1010.19,VALID,0,VALID,104,VALID,0,VALID,23.4797,VALID,79,VALID,3.35391,
2012-06-09, 03:41:05,VALID,1010.18,VALID,0,VALID,104,VALID,0,VALID,23.4992,VALID,73,VALID,1.14023,
2012-06-09, 03:42:05,VALID,1010.21,VALID,0.5,VALID,104,VALID,0,VALID,23.5204,VALID,68,VALID,2.08789,
2012-06-09, 03:43:05,VALID,1010.2,VALID,0,VALID,104,VALID,0,VALID,23.4797,VALID,74,VALID,2.36641,
2012-06-09, 03:44:05,VALID,1010.19,VALID,0.5,VALID,104,VALID,0,VALID,23.4407,VALID,69,VALID,2.85117,
2012-06-09, 03:45:05,VALID,1010.18,VALID,0.5,VALID,104,VALID,0,VALID,23.4212,VALID,83,VALID,3.80273,
2012-06-09, 03:46:05,VALID,1010.15,VALID,0,VALID,104,VALID,0,VALID,23.3823,VALID,86,VALID,4.98867,
2012-06-09, 03:47:05,VALID,1010.13,VALID,0.5,VALID,104,VALID,0,VALID,23.3628,VALID,83,VALID,2.48398,
2012-06-09, 03:48:05,VALID,1010.13,VALID,0,VALID,104,VALID,0,VALID,23.3433,VALID,75,VALID,2.76172,
2012-06-09, 03:49:05,VALID,1010.13,VALID,0,VALID,104,VALID,0,VALID,23.322,VALID,78,VALID,2.77656,
2012-06-09, 03:50:05,VALID,1010.06,VALID,0.5,VALID,104,VALID,0,VALID,23.322,VALID,86,VALID,2.0418,
2012-06-09, 03:51:05,VALID,1010.08,VALID,0,VALID,104,VALID,0,VALID,23.3238,VALID,65,VALID,1.58047,